Find Starlink 32276

NORAD ID: 60944 Int'l Des: 2024-155 Owner: SPXS Country: US Constellation: starlink operational
LEOCIRCULAR

当前视图

正在加载3D地球...

About Starlink 32276

Starlink 32276 (NORAD 60944) is a starlink constellation satellite (v2 mini) launched Aug 31, 2024 by SPXS of US. It operates in LEO, CIRCULAR orbit with a mass of 730.00 kg.

关于 Starlink 32276

正在加载描述...

即将过境

Passes for default location (London). Set your location on the main map for personalized predictions.

高度历史

Loading altitude history...

两行轨道根数

1 60944U 24155W 26170.84974927 .00002791 00000-0 93637-4 0 9997
2 60944 53.1620 15.0293 0000842 110.8081 249.3012 15.34416910102036
Epoch: Jun 19, 2026 • Age: 55 hours

当前状态

高度 467.0 km
速度 7.64 km/s
星下点 46.35°N, 168.46°E
发射日期 Aug 31, 2024
运行时间 1.8 years
类型 internet

技术详情

分类 Payload
质量 730.00 kg
干质量 700.00 kg
总质量 730.00 kg
长度 0.30 m
直径 4.10 m
跨度 29.00 m
形状 Box + pan
制造商 SPXS
平台类型 Starlink V2M
阶段状态 In Orbit
所有者/国家 SPXS/US

Most Searched